CW5629 Weather Reports


time (UTC)temp
C
wind
direction
speed
KPH
gust
KPH
rain 1hr
cm
rain 24hr
cm
rain mn
cm
humidity
%
barometer
mb
20260507174126 13 120 0.0 1.6 0.00 0.00 0.00 64 1013.5
20260507173116 13 304 0.0 3.2 0.00 0.00 0.00 63 1013.5
20260507172148 14 122 0.0 1.6 0.00 0.00 0.00 61 1013.6
20260507171112 14 116 0.0 1.6 0.00 0.00 0.00 60 1013.7
20260507170125 14 96 0.0 1.6 0.00 0.00 0.00 58 1013.6
20260507165131 14 97 0.0 1.6 0.00 0.00 0.00 59 1013.7
20260507164144 14 119 0.0 1.6 0.00 0.00 0.00 61 1013.6
20260507163115 14 115 0.0 1.6 0.00 0.00 0.00 63 1013.7
20260507162121 14 105 0.0 1.6 0.00 0.00 0.00 61 1013.6
20260507161113 15 133 0.0 3.2 0.00 0.00 0.00 60 1013.7
20260507160120 15 126 0.0 3.2 0.00 0.00 0.00 58 1013.7
20260507155114 15 127 0.0 9.7 0.00 0.00 0.00 55 1013.8
20260507154127 16 110 0.0 3.2 0.00 0.00 0.00 57 1013.8
20260507153113 16 80 0.0 4.8 0.00 0.00 0.00 56 1013.7
20260507152126 16 115 0.0 6.4 0.00 0.00 0.00 54 1013.8
20260507151132 16 120 0.0 3.2 0.00 0.00 0.00 54 1013.8
20260507150122 16 98 0.0 4.8 0.00 0.00 0.00 57 1013.9
20260507145136 16 112 0.0 4.8 0.00 0.00 0.00 52 1014.0
20260507144141 16 129 0.0 3.2 0.00 0.00 0.00 50 1014.0
20260507143114 16 117 0.0 4.8 0.00 0.00 0.00 52 1014.0
20260507142128 16 94 0.0 3.2 0.00 0.00 0.00 52 1014.1
20260507141113 16 123 0.0 8.0 0.00 0.00 0.00 54 1014.3
20260507140147 16 110 0.0 4.8 0.00 0.00 0.00 55 1014.4
20260507135139 16 110 0.0 4.8 0.00 0.00 0.00 54 1014.4
20260507134124 15 106 0.0 6.4 0.00 0.00 0.00 53 1014.3
20260507133118 16 108 0.0 4.8 0.00 0.00 0.00 51 1014.3
20260507132151 16 113 1.6 3.2 0.00 0.00 0.00 51 1014.4
20260507131115 17 288 1.6 4.8 0.00 0.00 0.00 52 1014.5
20260507130129 16 134 0.0 3.2 0.00 0.00 0.00 56 1014.4
20260507125143 16 336 1.6 8.0 0.00 0.00 0.00 60 1014.4
20260507124134 16 101 0.0 6.4 0.00 0.00 0.00 64 1014.3
20260507123120 16 114 0.0 6.4 0.00 0.00 0.00 66 1014.5
20260507122153 16 124 0.0 6.4 0.00 0.00 0.00 70 1014.6
20260507121146 15 76 0.0 4.8 0.00 0.00 0.00 73 1014.5
20260507120138 14 91 0.0 3.2 0.00 0.00 0.00 77 1014.6
20260507115125 13 117 0.0 3.2 0.00 0.00 0.00 78 1014.7
20260507114138 13 95 0.0 3.2 0.00 0.00 0.00 77 1014.7
20260507113124 13 133 0.0 3.2 0.00 0.00 0.00 76 1014.7
20260507112136 13 339 1.6 4.8 0.00 0.00 0.00 77 1014.6
20260507111122 14 127 0.0 1.6 0.00 0.00 0.00 77 1014.7
20260507110136 14 107 0.0 4.8 0.00 0.00 0.00 75 1014.7
20260507105147 15 116 0.0 3.2 0.00 0.00 0.00 74 1014.6
20260507104139 15 110 0.0 4.8 0.00 0.00 0.00 73 1014.7
20260507103130 15 84 0.0 4.8 0.00 0.00 0.00 74 1014.7
20260507102117 15 89 0.0 1.6 0.00 0.00 0.00 74 1014.6
20260507101130 15 143 1.6 8.0 0.00 0.00 0.00 73 1014.7
20260507100136 16 108 0.0 3.2 0.00 0.00 0.00 73 1014.8
20260507095112 15 102 0.0 3.2 0.00 0.00 0.00 74 1014.7
20260507094125 15 113 0.0 3.2 0.00 0.00 0.00 77 1014.6
20260507093110 15 125 0.0 3.2 0.00 0.00 0.00 77 1014.6
20260507092124 15 110 0.0 1.6 0.00 0.00 0.00 77 1014.5
20260507091110 15 112 0.0 3.2 0.00 0.10 0.00 79 1014.5
20260507090144 13 108 0.0 1.6 0.00 0.10 0.00 82 1014.5
20260507085116 13 112 0.0 3.2 0.00 0.10 0.00 84 1014.5
20260507084127 12 107 0.0 1.6 0.00 0.10 0.00 86 1014.6
20260507083133 12 113 0.0 3.2 0.00 0.10 0.00 87 1014.6
20260507082126 12 122 0.0 1.6 0.00 0.10 0.00 89 1014.6
20260507081118 11 115 0.0 0.0 0.00 0.51 0.00 91 1014.7
20260507080124 11 114 0.0 1.6 0.00 0.51 0.00 92 1014.7
20260507075114 11 114 0.0 1.6 0.00 0.51 0.00 93 1014.7
20260507074120 10 115 0.0 1.6 0.00 0.51 0.00 94 1014.7
20260507073133 10 115 0.0 0.0 0.00 0.51 0.00 95 1014.6
20260507072124 10 115 0.0 0.0 0.00 0.51 0.00 95 1014.6
20260507071111 9 115 0.0 0.0 0.00 0.51 0.00 95 1014.5
20260507070125 8 115 0.0 0.0 0.00 0.51 0.00 95 1014.4
20260507065119 8 115 0.0 0.0 0.00 0.51 0.00 95 1014.3
20260507064124 8 115 0.0 0.0 0.00 0.51 0.00 95 1014.3
20260507063116 8 115 0.0 0.0 0.00 0.51 0.00 95 1014.3
20260507062149 7 115 0.0 0.0 0.00 0.51 0.00 95 1014.3
20260507061114 7 115 0.0 0.0 0.00 0.51 0.00 95 1014.2
20260507060127 7 115 0.0 0.0 0.00 0.51 0.00 95 1014.1
20260507055113 7 115 0.0 0.0 0.00 0.51 0.00 95 1014.1
20260507054125 7 115 0.0 0.0 0.00 0.51 0.00 95 1014.1
20260507053116 6 115 0.0 4.8 0.00 0.51 0.00 95 1014.0
20260507052121 6 116 0.0 0.0 0.00 0.51 0.00 95 1014.0
20260507051115 6 116 0.0 0.0 0.00 0.51 0.00 95 1013.8
20260507050127 6 116 0.0 0.0 0.00 0.51 0.00 95 1013.9
20260507045112 5 116 0.0 0.0 0.00 0.51 0.00 94 1013.9
20260507044125 5 116 0.0 0.0 0.00 0.51 0.00 94 1014.0
20260507043111 5 116 0.0 0.0 0.00 0.51 0.00 93 1014.0
20260507042124 5 116 0.0 0.0 0.00 0.51 0.00 93 1014.0
20260507041133 5 116 0.0 0.0 0.00 0.51 0.00 93 1013.9
20260507040119 5 116 0.0 0.0 0.00 0.51 0.00 93 1013.9
20260507035133 5 116 0.0 0.0 0.00 0.51 0.00 93 1013.9
20260507034119 5 116 0.0 0.0 0.00 0.51 0.00 92 1013.8
20260507033117 5 116 0.0 0.0 0.00 0.51 0.00 92 1013.8
20260507032123 5 116 0.0 0.0 0.00 0.51 0.00 92 1013.7
20260507031116 5 116 0.0 0.0 0.00 0.51 0.00 93 1013.6
20260507030121 5 116 0.0 0.0 0.00 0.51 0.00 92 1013.6
20260507025115 6 116 0.0 0.0 0.00 0.51 0.00 92 1013.6
20260507024126 6 116 0.0 0.0 0.00 0.51 0.00 92 1013.6
20260507023111 6 116 0.0 0.0 0.00 0.51 0.00 93 1013.5
20260507022125 6 116 0.0 0.0 0.00 0.51 0.00 91 1013.5
20260507021137 6 116 0.0 0.0 0.00 0.51 0.00 91 1013.5
20260507020150 7 116 0.0 0.0 0.00 0.51 0.00 91 1013.5
20260507015115 6 116 0.0 0.0 0.00 0.51 0.00 90 1013.5
20260507014127 7 116 0.0 0.0 0.00 0.51 0.00 90 1013.5
20260507013113 7 116 0.0 0.0 0.00 0.51 0.00 90 1013.5
20260507012126 7 116 0.0 0.0 0.00 0.51 0.00 89 1013.5
20260507011119 7 116 0.0 0.0 0.00 0.51 0.00 88 1013.5
20260507010150 7 116 0.0 0.0 0.00 0.51 0.00 88 1013.5
20260507005115 8 116 0.0 0.0 0.00 0.51 0.00 88 1013.5
20260507004150 8 116 0.0 0.0 0.00 0.51 0.00 88 1013.5
20260507003142 8 116 0.0 0.0 0.00 0.51 0.00 88 1013.5
20260507002134 8 116 0.0 0.0 0.00 0.51 0.00 88 1013.6
20260507001119 8 116 0.0 0.0 0.00 0.51 0.00 88 1013.7
20260507000113 9 116 0.0 0.0 0.00 0.51 0.00 88 1013.8
20260506235126 9 116 0.0 0.0 0.00 0.51 0.00 87 1013.8
20260506234111 9 116 0.0 0.0 0.00 0.51 0.00 87 1013.7
20260506233124 9 116 0.0 0.0 0.00 0.51 0.00 87 1013.7
20260506232134 9 116 0.0 0.0 0.00 0.51 0.00 87 1013.7
20260506231120 9 116 0.0 0.0 0.00 0.51 0.10 86 1013.7
20260506230131 9 116 0.0 0.0 0.00 0.51 0.10 86 1013.7
20260506225143 9 116 0.0 0.0 0.00 0.51 0.10 86 1013.8
20260506224128 9 116 0.0 0.0 0.00 0.51 0.10 85 1013.8
20260506223121 9 116 0.0 0.0 0.00 0.51 0.10 85 1013.8
20260506222113 10 116 0.0 0.0 0.00 0.51 0.10 84 1013.8
20260506221124 10 116 0.0 0.0 0.00 0.51 0.10 84 1013.7
20260506220130 10 116 0.0 0.0 0.00 0.51 0.10 84 1013.7
20260506215122 10 116 0.0 0.0 0.00 0.51 0.10 84 1013.7
20260506214115 10 116 0.0 0.0 0.00 0.51 0.10 83 1013.6
20260506213120 10 116 0.0 0.0 0.00 0.51 0.10 83 1013.7
20260506212112 10 116 0.0 0.0 0.00 0.51 0.10 82 1013.7
20260506211145 10 116 0.0 0.0 0.00 0.51 0.10 80 1013.7
20260506210117 10 116 0.0 0.0 0.00 0.51 0.10 79 1013.6
20260506205151 10 116 0.0 0.0 0.00 0.51 0.10 79 1013.5
20260506204113 10 116 0.0 0.0 0.00 0.51 0.10 78 1013.5
20260506203146 10 116 0.0 0.0 0.00 0.51 0.10 78 1013.4
20260506202118 10 116 0.0 0.0 0.00 0.51 0.10 77 1013.4
20260506201132 10 116 0.0 0.0 0.00 0.51 0.10 76 1013.3
20260506200118 11 116 0.0 0.0 0.00 0.51 0.10 75 1013.3
20260506195151 11 116 0.0 0.0 0.00 0.51 0.10 74 1013.3
20260506194116 11 116 0.0 0.0 0.00 0.51 0.10 73 1013.2
20260506193129 11 116 0.0 0.0 0.00 0.51 0.10 73 1013.1
20260506192119 11 116 0.0 0.0 0.00 0.51 0.10 72 1013.1
20260506191132 11 116 0.0 0.0 0.00 0.51 0.10 70 1013.0
20260506190119 12 100 0.0 0.0 0.00 0.51 0.10 69 1013.0
20260506185112 12 100 0.0 0.0 0.00 0.51 0.10 69 1012.9
20260506184117 12 101 0.0 0.0 0.00 0.51 0.10 69 1013.0
20260506183130 12 101 0.0 0.0 0.00 0.51 0.10 68 1012.9
20260506182121 12 100 0.0 0.0 0.00 0.51 0.10 69 1012.9
20260506181126 12 98 0.0 0.0 0.00 0.51 0.10 70 1012.9
20260506180140 12 98 0.0 1.6 0.00 0.51 0.10 68 1012.8
20260506175130 12 92 0.0 1.6 0.00 0.51 0.10 68 1012.8